Change the Weather History Date:

Sunday, January 29, 2012

  Actual Average Record
Temperature  
Mean Temperature 30 °F 26 °F  
Max Temperature 36 °F 34 °F 61 °F (2013)
Min Temperature 24 °F 17 °F 0 °F (2004)
Degree Days  
Heating Degree Days 35 39  
Month to date heating degree days 991 1153  
Since 1 July heating degree days 2896 3434  
Cooling Degree Days 0 0  
Month to date cooling degree days 0 0  
Year to date cooling degree days 0 0  
Moisture  
Dew Point 22 °F    
Average Humidity 70    
Maximum Humidity 88    
Minimum Humidity 52    
Precipitation  
Precipitation 0.00 in 0.04 in 0.81 in (2013)
Month to date precipitation 2.74 1.94  
Year to date precipitation 2.74 1.94  
Sea Level Pressure  
Sea Level Pressure 30.20 in    
Wind  
Wind Speed 13 mph (WSW)    
Max Wind Speed 31 mph    
Max Gust Speed 39 mph    
Visibility 10 miles    
Events      
T = Trace of Precipitation, MM = Missing Value Source: NWS Daily Summary

Daily Weather History Graph

Daily Weather History Graph

Search for Another Location

Airport or City:

Trip Planner

Search our weather history database for the weather conditions in past years. The results will help you decide how hot, cold, wet, or windy it might be!

Date:

Astronomy

Jan. 29, 2012 Rise Set
Actual Time 7:04 AM CST 5:08 PM CST
Civil Twilight 6:35 AM CST 5:36 PM CST
Nautical Twilight 6:03 AM CST 6:09 PM CST
Astronomical Twilight 5:31 AM CST 6:41 PM CST
Moon 9:55 AM CST (1/29) 11:53 PM CST (1/29)
Length of Visible Light 11h 00m
Length of Day
10h 03m
Waxing Crescent, 37% of the Moon is Illuminated
Jan 29
Waxing Crescent
Jan 30
First Quarter
Feb 7
Full
Feb 14
Last Quarter
Feb 21
New

Hourly Weather History & Observations

Time (CST) Temp. Windchill Dew Point Humidity Pressure Visibility Wind Dir Wind Speed Gust Speed Precip Events Conditions
12:53 AM 30.9 °F 21.2 °F 24.1 °F 76% 30.16 in 10.0 mi SW 12.7 mph - N/A   Clear
1:53 AM 30.9 °F 21.2 °F 24.1 °F 76% 30.15 in 10.0 mi SW 12.7 mph - N/A   Clear
2:53 AM 30.9 °F 20.7 °F 24.1 °F 76% 30.13 in 10.0 mi SW 13.8 mph - N/A   Clear
3:53 AM 30.9 °F 20.7 °F 24.1 °F 76% 30.12 in 10.0 mi SW 13.8 mph - N/A   Clear
4:53 AM 30.9 °F 19.8 °F 23.0 °F 72% 30.09 in 10.0 mi SW 16.1 mph - N/A   Clear
5:53 AM 32.0 °F 20.1 °F 23.0 °F 69% 30.08 in 10.0 mi SW 19.6 mph - N/A   Mostly Cloudy
6:53 AM 32.0 °F 21.6 °F 23.0 °F 69% 30.09 in 10.0 mi SW 15.0 mph - N/A   Overcast
7:53 AM 32.0 °F 21.2 °F 23.0 °F 69% 30.11 in 10.0 mi WSW 16.1 mph - N/A   Mostly Cloudy
8:53 AM 34.0 °F 23.4 °F 23.0 °F 64% 30.12 in 10.0 mi West 17.3 mph - N/A   Overcast
9:53 AM 34.0 °F 22.7 °F 23.0 °F 64% 30.15 in 10.0 mi West 19.6 mph 27.6 mph N/A   Overcast
10:53 AM 35.1 °F 22.0 °F 21.9 °F 59% 30.18 in 10.0 mi WNW 28.8 mph 39.1 mph N/A   Scattered Clouds
11:53 AM 35.1 °F 22.0 °F 21.0 °F 57% 30.19 in 10.0 mi West 28.8 mph 34.5 mph N/A   Partly Cloudy
12:53 PM 35.6 °F 24.0 °F 19.4 °F 52% 30.19 in 10.0 mi WNW 23.0 mph 32.2 mph N/A   Clear
1:53 PM 35.1 °F 24.8 °F 19.9 °F 54% 30.22 in 10.0 mi WNW 17.3 mph 26.5 mph N/A   Partly Cloudy
2:53 PM 35.1 °F 25.5 °F 21.0 °F 57% 30.24 in 10.0 mi WNW 15.0 mph - N/A   Partly Cloudy
3:53 PM 34.0 °F 23.8 °F 21.0 °F 59% 30.26 in 10.0 mi West 16.1 mph - N/A   Partly Cloudy
4:53 PM 30.9 °F 23.5 °F 21.0 °F 67% 30.27 in 10.0 mi West 8.1 mph - N/A   Clear
5:53 PM 28.9 °F 22.8 °F 21.9 °F 75% 30.28 in 10.0 mi West 5.8 mph - N/A   Clear
6:53 PM 27.0 °F - 21.9 °F 81% 30.29 in 10.0 mi Calm Calm - N/A   Clear
7:53 PM 27.0 °F - 21.9 °F 81% 30.29 in 10.0 mi Calm Calm - N/A   Clear
8:53 PM 24.1 °F 19.7 °F 21.9 °F 91% 30.30 in 10.0 mi South 3.5 mph - N/A   Clear
9:53 PM 25.0 °F 20.7 °F 21.9 °F 88% 30.28 in 10.0 mi SSE 3.5 mph - N/A   Clear
10:53 PM 25.0 °F 18.1 °F 19.9 °F 81% 30.27 in 10.0 mi SSE 5.8 mph - N/A   Clear
11:53 PM 25.0 °F 18.1 °F 21.0 °F 85% 30.26 in 10.0 mi East 5.8 mph - N/A   Clear